Location: �terpigny
(49.8910°N, 2.9249°E)
Time: 04:21:33
(UTC+00:00)

Cosmos 614 Rocket - Pass Details

Date: 05 June 2022
Orbit: 732 x 764 km, 74.1° (Epoch: 06 July)

Event Time Altitude Azimuth Distance (km) Brightness Sun altitude
Rises 01:30:01 0° 324° (NW) 3,228 7.7 -14.0°
Reaches altitude 10° 01:33:04 10° 306° (NW) 2,302 6.6 -13.8°
Maximum altitude 01:36:29 18° 265° (W) 1,813 5.6 -13.6°
Enters shadow 01:38:26 15° 238° (WSW) 1,982 5.6 -13.5°
